Weather History for KGNV - April, 2013

Change the Weather History Date:

Sunday, April 28, 2013

  Actual Average Record
Temperature  
Mean Temperature 72 °F 70 °F  
Max Temperature 85 °F 83 °F 95 °F (1991)
Min Temperature 59 °F 57 °F 41 °F (1978)
Degree Days  
Heating Degree Days 0 1  
Month to date heating degree days 24 43  
Since 1 July heating degree days 1036 1214  
Cooling Degree Days 7 6  
Month to date cooling degree days 149 109  
Year to date cooling degree days 267 195  
Growing Degree Days 20 (Base 50)    
Moisture  
Dew Point 60 °F    
Average Humidity 70    
Maximum Humidity 93    
Minimum Humidity 47    
Precipitation  
Precipitation T in 0.07 in 2.81 in (1964)
Month to date precipitation 3.11 2.52  
Year to date precipitation 6.06 13.36  
Snow  
Snow 0.00 in 0.00 in 0.00 in ()
Month to date snowfall 0.0 0.0  
Since 1 July snowfall 0.0 0.0  
Snow Depth 0.00 in    
Sea Level Pressure  
Sea Level Pressure 30.08 in    
Wind  
Wind Speed 6 mph (SE)    
Max Wind Speed 17 mph    
Max Gust Speed 24 mph    
Visibility 10 miles    
Events      
T = Trace of Precipitation, MM = Missing Value Source: NWS Daily Summary

Daily Weather History Graph

Daily Weather History Graph

Search for Another Location

Airport or City:

Trip Planner

Search our weather history database for the weather conditions in past years. The results will help you decide how hot, cold, wet, or windy it might be!

Date:

Astronomy

Apr. 28, 2013 Rise Set
Actual Time 6:49 AM EDT 8:04 PM EDT
Civil Twilight 6:24 AM EDT 8:29 PM EDT
Nautical Twilight 5:54 AM EDT 8:59 PM EDT
Astronomical Twilight 5:23 AM EDT 9:30 PM EDT
Moon 11:25 PM EDT (4/28) 9:12 AM EDT (4/28)
Length of Visible Light 14h 05m
Length of Day
13h 15m
Waning Gibbous, 89% of the Moon is Illuminated
Apr 28
Waning Gibbous
May 2
Last Quarter
May 9
New
May 18
First Quarter
May 25
Full

Hourly Weather History & Observations

Time (EDT) Temp. Heat Index Dew Point Humidity Pressure Visibility Wind Dir Wind Speed Gust Speed Precip Events Conditions
12:53 AM 63.0 °F - 57.9 °F 84% 30.17 in 10.0 mi ENE 6.9 mph - N/A   Clear
1:53 AM 63.0 °F - 57.9 °F 84% 30.15 in 10.0 mi Calm Calm - N/A   Partly Cloudy
2:53 AM 60.1 °F - 57.0 °F 90% 30.12 in 10.0 mi SE 3.5 mph - N/A   Clear
3:53 AM 63.0 °F - 60.1 °F 90% 30.10 in 10.0 mi Calm Calm - N/A   Clear
4:53 AM 60.1 °F - 57.9 °F 93% 30.11 in 10.0 mi Calm Calm - N/A   Clear
5:53 AM 59.0 °F - 57.0 °F 93% 30.09 in 10.0 mi Calm Calm - N/A   Partly Cloudy
6:53 AM 61.0 °F - 57.9 °F 90% 30.11 in 3.0 mi NNE 4.6 mph - N/A   Partly Cloudy
7:53 AM 64.0 °F - 62.1 °F 93% 30.12 in 9.0 mi SSE 3.5 mph - N/A   Clear
9:53 AM 75.0 °F - 64.9 °F 71% 30.16 in 10.0 mi Variable 4.6 mph - N/A   Mostly Cloudy
10:53 AM 77.0 °F - 63.0 °F 62% 30.14 in 10.0 mi South 9.2 mph - N/A   Scattered Clouds
11:00 AM 77.0 °F - 62.6 °F 61% 30.15 in 10.0 mi SSE 9.2 mph - N/A   Mostly Cloudy
11:35 AM 80.6 °F 81.8 °F 62.6 °F 54% 30.14 in 10.0 mi ESE 12.7 mph 19.6 mph N/A   Scattered Clouds
11:53 AM 80.1 °F 81.2 °F 62.1 °F 54% 30.12 in 10.0 mi ESE 12.7 mph - N/A   Scattered Clouds
12:53 PM 82.0 °F 82.7 °F 61.0 °F 49% 30.10 in 10.0 mi SE 11.5 mph 21.9 mph N/A   Scattered Clouds
1:53 PM 82.9 °F 83.7 °F 62.1 °F 49% 30.08 in 10.0 mi ESE 8.1 mph - N/A   Scattered Clouds
2:53 PM 82.9 °F 84.0 °F 63.0 °F 51% 30.06 in 10.0 mi East 6.9 mph - N/A   Partly Cloudy
3:53 PM 82.9 °F 83.7 °F 62.1 °F 49% 30.03 in 10.0 mi East 15.0 mph 19.6 mph N/A   Mostly Cloudy
4:53 PM 82.0 °F 82.7 °F 61.0 °F 49% 30.01 in 10.0 mi Variable 5.8 mph - N/A   Partly Cloudy
5:53 PM 80.1 °F 81.1 °F 61.0 °F 52% 30.00 in 10.0 mi ESE 13.8 mph - 0.00 in   Mostly Cloudy
6:53 PM 80.1 °F 80.9 °F 60.1 °F 50% 29.99 in 10.0 mi ESE 11.5 mph - N/A   Clear
7:53 PM 77.0 °F - 60.1 °F 56% 29.98 in 10.0 mi ESE 10.4 mph - N/A   Clear
8:53 PM 73.0 °F - 60.1 °F 64% 30.00 in 10.0 mi SE 8.1 mph - N/A   Clear
9:53 PM 73.0 °F - 59.0 °F 61% 30.02 in 10.0 mi SSE 5.8 mph - N/A   Mostly Cloudy
10:53 PM 71.1 °F - 59.0 °F 66% 30.04 in 10.0 mi SSE 4.6 mph - N/A   Partly Cloudy
11:53 PM 70.0 °F - 60.1 °F 71% 30.03 in 10.0 mi SSE 5.8 mph - N/A   Clear